Location: Lafig�re
(44.4503°N, 4.0357°E)
Time: 09:29:08
(UTC+00:00)

H-2A R/B - Visible Passes

Search period start: 16 January 2021 00:00
Search period end: 26 January 2021 00:00
Orbit: 733 x 837 km, 98.2° (Epoch: 15 January)

Date Brightness Start Highest point End Pass type
(mag) Time Alt. Az. Time Alt. Az. Time Alt. Az.
16 Jan 3.5 16:59:41 10° E 17:02:20 15° ENE 17:05:01 10° NNE visible
16 Jan 2.0 18:36:08 10° S 18:41:04 80° WSW 18:46:09 10° NNW visible
17 Jan 2.0 18:05:20 10° SSE 18:10:07 54° ENE 18:15:03 10° N visible
17 Jan 4.5 19:46:28 10° SW 19:49:55 19° W 19:53:27 10° NW visible
18 Jan 5.0 06:16:04 10° NE 06:19:50 19° E 06:23:36 10° SE visible
18 Jan 2.7 17:35:04 10° SE 17:39:20 29° ENE 17:43:40 10° N visible
18 Jan 3.4 19:14:07 10° SSW 19:18:38 36° W 19:23:17 10° NNW visible
19 Jan 3.4 17:05:35 10° E 17:08:41 17° ENE 17:11:50 10° NNE visible
19 Jan 2.2 18:42:35 10° S 18:47:30 69° WSW 18:52:35 10° NNW visible
20 Jan 1.9 18:11:39 10° SSE 18:16:32 63° ENE 18:21:34 10° N visible
20 Jan 4.7 19:53:20 10° SW 19:56:27 16° W 19:59:36 10° NW visible
21 Jan 4.9 06:22:16 10° NE 06:26:23 22° E 06:30:32 10° SE visible
21 Jan 2.6 17:41:16 10° SE 17:45:42 34° ENE 17:50:16 10° N visible
21 Jan 3.7 19:20:44 10° SSW 19:25:08 31° W 19:29:39 10° NNW visible
22 Jan 5.4 05:53:16 10° ENE 05:55:01 11° E 05:56:46 10° ESE visible
22 Jan 3.3 17:11:33 10° ESE 17:15:02 19° ENE 17:18:35 10° NNE visible
22 Jan 2.5 18:49:04 10° S 18:53:58 60° W 18:59:02 10° NNW visible
23 Jan 1.9 18:18:00 10° SSE 18:22:57 73° ENE 18:28:05 10° N visible
23 Jan 4.8 20:00:20 10° WSW 20:02:59 14° W 20:05:40 10° NW visible
24 Jan 4.7 06:28:30 10° NE 06:32:56 25° E 06:37:23 10° SSE visible
24 Jan 2.4 17:47:29 10° SE 17:52:06 39° ENE 17:56:51 10° N visible
24 Jan 4.0 19:27:24 10° SSW 19:31:38 27° W 19:35:59 10° NW visible
25 Jan 5.3 05:58:58 10° ENE 06:01:36 14° E 06:04:14 10° ESE visible
25 Jan 3.1 17:17:36 10° ESE 17:21:23 22° ENE 17:25:17 10° NNE visible
25 Jan 2.8 18:55:34 10° S 19:00:26 52° W 19:05:29 10° NNW visible
